E0445 Weather Reports


Display with metric or nautical units.
time (UTC)temp
F
wind
direction
speed
MPH
gust
MPH
rain 1hr
in
rain 24hr
in
rain mn
in
humidity
%
barometer
mb
20260508151533 45 248 1.0 4.0 0.00 0.10 0.10 82 1012.1
20260508151012 45 222 2.0 4.0 0.00 0.10 0.10 82 1012.0
20260508150516 44 241 2.0 4.0 0.00 0.10 0.10 82 1012.0
20260508150029 44 0 0.0 4.0 0.00 0.10 0.10 81 1012.1
20260508145512 44 258 1.0 5.0 0.00 0.10 0.10 81 1012.1
20260508145011 44 310 2.0 9.0 0.00 0.10 0.10 81 1012.2
20260508144529 44 208 2.0 10.0 0.00 0.10 0.10 81 1012.2
20260508144009 44 215 4.0 10.0 0.00 0.10 0.10 80 1012.3
20260508143513 44 272 4.0 7.0 0.00 0.10 0.10 82 1012.2
20260508143036 44 213 2.0 8.0 0.00 0.10 0.10 83 1012.2
20260508142511 44 202 1.0 11.0 0.00 0.10 0.10 83 1012.1
20260508142012 44 208 3.0 12.0 0.00 0.10 0.10 84 1012.0
20260508141530 44 170 5.0 12.0 0.00 0.10 0.10 85 1011.9
20260508141011 45 157 3.0 10.0 0.00 0.10 0.10 87 1011.9
20260508140512 44 250 4.0 11.0 0.00 0.10 0.10 86 1012.0
20260508140035 43 197 7.0 11.0 0.00 0.10 0.10 85 1012.0
20260508135510 44 215 6.0 10.0 0.00 0.10 0.10 85 1012.3
20260508135013 44 190 3.0 10.0 0.00 0.10 0.10 83 1012.1
20260508134528 44 209 4.0 10.0 0.00 0.10 0.10 84 1012.2
20260508134009 43 171 3.0 10.0 0.00 0.10 0.10 86 1012.2
20260508133512 43 190 3.0 8.0 0.00 0.10 0.10 87 1012.1
20260508133026 43 215 4.0 8.0 0.00 0.10 0.10 88 1012.3
20260508132513 43 210 1.0 6.0 0.00 0.10 0.10 87 1012.3
20260508132012 43 213 2.0 7.0 0.00 0.10 0.10 88 1012.1
20260508131528 42 206 2.0 7.0 0.00 0.10 0.10 88 1012.1
20260508131015 42 202 2.0 6.0 0.00 0.10 0.10 89 1012.2
20260508130511 42 225 2.0 5.0 0.00 0.10 0.10 90 1012.2
20260508130040 42 255 2.0 5.0 0.00 0.10 0.10 89 1012.1
20260508125512 42 242 2.0 7.0 0.00 0.10 0.10 90 1012.3
20260508125012 42 234 4.0 7.0 0.00 0.10 0.10 90 1012.2
20260508124534 42 191 2.0 5.0 0.00 0.10 0.10 92 1012.1
20260508124012 42 249 2.0 4.0 0.00 0.10 0.10 93 1012.1
20260508123510 42 237 1.0 4.0 0.00 0.10 0.10 94 1012.1
20260508123035 42 0 0.0 3.0 0.00 0.10 0.10 95 1012.2
20260508122511 41 0 0.0 3.0 0.00 0.10 0.10 95 1012.0
20260508122013 41 0 1.0 3.0 0.00 0.10 0.10 97 1012.1
20260508121527 41 0 0.0 0.0 0.00 0.10 0.10 96 1012.1
20260508121011 40 0 0.0 0.0 0.00 0.10 0.10 97 1012.1
20260508120513 39 0 0.0 0.0 0.00 0.10 0.10 97 1012.2
20260508120028 39 0 0.0 0.0 0.00 0.10 0.10 97 1012.2
20260508115514 38 0 0.0 1.0 0.00 0.10 0.10 97 1012.1
20260508115012 38 0 0.0 1.0 0.00 0.10 0.10 96 1012.2
20260508114528 38 0 0.0 1.0 0.00 0.10 0.10 96 1012.2
20260508114011 37 0 0.0 1.0 0.00 0.10 0.10 96 1012.3
20260508113512 37 0 0.0 1.0 0.00 0.10 0.10 96 1012.1
20260508113030 37 0 0.0 1.0 0.00 0.10 0.10 96 1012.3
20260508112512 36 0 0.0 1.0 0.00 0.10 0.10 96 1012.3
20260508112009 36 0 0.0 2.0 0.00 0.10 0.10 96 1012.1
20260508111529 35 0 0.0 2.0 0.00 0.10 0.10 96 1012.2
20260508111013 35 193 0.0 2.0 0.00 0.10 0.10 96 1012.4
20260508110510 35 0 0.0 1.0 0.00 0.10 0.10 96 1012.1
20260508110031 34 0 0.0 3.0 0.00 0.10 0.10 96 1012.0
20260508105513 34 0 0.0 3.0 0.00 0.10 0.10 96 1012.1
20260508105012 34 0 0.0 2.0 0.00 0.10 0.10 96 1012.1
20260508104529 34 0 0.0 2.0 0.00 0.10 0.10 95 1012.0
20260508104014 34 235 0.0 2.0 0.00 0.10 0.10 95 1011.9
20260508103512 34 0 0.0 0.0 0.00 0.10 0.10 95 1011.8
20260508103038 34 0 0.0 0.0 0.00 0.10 0.10 95 1011.9
20260508102512 34 0 0.0 0.0 0.00 0.10 0.10 95 1011.8
20260508102011 34 0 0.0 0.0 0.00 0.10 0.10 95 1011.6
20260508101528 34 0 0.0 0.0 0.00 0.10 0.10 95 1011.8
20260508101013 34 0 0.0 0.0 0.00 0.10 0.10 96 1011.9
20260508100510 34 0 0.0 0.0 0.00 0.10 0.10 95 1011.9
20260508100027 34 0 0.0 0.0 0.00 0.10 0.10 95 1011.8
20260508095510 34 0 0.0 0.0 0.00 0.10 0.10 95 1011.7
20260508095012 35 0 0.0 0.0 0.00 0.10 0.10 95 1011.8
20260508094541 35 0 0.0 0.0 0.00 0.10 0.10 95 1011.7
20260508094009 34 0 0.0 0.0 0.00 0.10 0.10 95 1011.8
20260508093512 34 0 0.0 0.0 0.00 0.10 0.10 95 1011.8
20260508093028 34 0 0.0 0.0 0.00 0.10 0.10 95 1011.8
20260508092601 35 0 0.0 0.0 0.00 0.10 0.10 95 1011.7
20260508092514 35 0 0.0 0.0 0.00 0.10 0.10 95 1011.7
20260508092012 35 0 0.0 0.0 0.00 0.10 0.10 95 1011.7
20260508091542 35 0 0.0 0.0 0.00 0.10 0.10 95 1011.7
20260508091011 35 0 0.0 0.0 0.00 0.10 0.10 95 1011.8
20260508090509 35 0 0.0 0.0 0.00 0.10 0.10 95 1011.8
20260508090045 35 0 0.0 0.0 0.00 0.10 0.10 95 1011.7
20260508085512 35 0 0.0 0.0 0.00 0.10 0.10 95 1011.7
20260508085012 35 0 0.0 0.0 0.00 0.10 0.10 95 1011.7
20260508084530 35 0 0.0 0.0 0.00 0.10 0.10 95 1011.6
20260508084013 35 0 0.0 0.0 0.00 0.10 0.10 94 1011.6
20260508083511 35 0 0.0 0.0 0.00 0.10 0.10 95 1011.6
20260508083027 35 0 0.0 0.0 0.00 0.10 0.10 95 1011.5
20260508082514 35 0 0.0 0.0 0.00 0.10 0.10 95 1011.5
20260508082012 36 0 0.0 0.0 0.00 0.10 0.10 94 1011.3
20260508081533 36 0 0.0 0.0 0.00 0.10 0.10 95 1011.2
20260508081015 36 0 0.0 0.0 0.00 0.10 0.10 94 1011.0
20260508080512 37 0 0.0 0.0 0.00 0.10 0.10 95 1011.3
20260508080028 37 0 0.0 0.0 0.00 0.10 0.10 95 1011.3
20260508075513 38 0 0.0 1.0 0.00 0.10 0.10 95 1011.4
20260508075011 38 0 0.0 1.0 0.00 0.10 0.10 95 1011.4
20260508074528 38 0 0.0 0.0 0.00 0.10 0.10 94 1011.3
20260508074013 38 0 0.0 1.0 0.00 0.10 0.10 95 1011.3
20260508073509 38 0 0.0 1.0 0.00 0.10 0.10 95 1011.4
20260508073034 38 0 0.0 1.0 0.00 0.10 0.10 94 1011.4
20260508072508 38 0 0.0 2.0 0.00 0.10 0.10 94 1011.4
20260508072011 38 0 0.0 2.0 0.00 0.10 0.10 94 1011.4
20260508071531 38 236 0.0 3.0 0.00 0.10 0.10 94 1011.5
20260508071012 38 236 1.0 3.0 0.00 0.10 0.10 94 1011.4
20260508070513 38 236 1.0 3.0 0.00 0.10 0.10 94 1011.4
20260508070041 38 0 0.0 1.0 0.00 0.10 0.10 94 1011.3
20260508065515 38 0 0.0 3.0 0.00 0.10 0.10 94 1011.2
20260508065012 38 0 0.0 3.0 0.00 0.10 0.10 94 1011.3
20260508064534 38 236 1.0 3.0 0.00 0.10 0.10 94 1011.3
20260508064014 37 235 1.0 2.0 0.00 0.10 0.10 94 1011.2
20260508063512 37 0 0.0 0.0 0.00 0.10 0.10 93 1011.3
20260508063030 37 0 0.0 0.0 0.00 0.10 0.10 93 1011.2
20260508062509 37 0 0.0 0.0 0.00 0.10 0.10 93 1011.2
20260508062011 38 0 0.0 0.0 0.00 0.10 0.10 93 1011.1
20260508061528 38 0 0.0 0.0 0.00 0.10 0.10 93 1011.1
20260508061010 38 0 0.0 0.0 0.00 0.10 0.10 92 1011.1
20260508060511 38 0 0.0 2.0 0.01 0.10 0.10 92 1011.1
20260508060035 39 0 0.0 2.0 0.01 0.10 0.10 92 1011.3
20260508055512 39 225 1.0 3.0 0.01 0.10 0.10 92 1011.3
20260508055016 40 225 1.0 3.0 0.01 0.10 0.10 92 1011.4
20260508054532 40 225 1.0 2.0 0.02 0.10 0.10 92 1011.3
20260508054011 40 225 1.0 2.0 0.02 0.10 0.10 91 1011.3
20260508053514 40 0 0.0 3.0 0.03 0.10 0.10 91 1011.3
20260508053029 41 0 0.0 3.0 0.03 0.10 0.10 91 1011.1
20260508052515 41 225 0.0 3.0 0.04 0.10 0.10 91 1011.1
20260508052011 42 0 0.0 3.0 0.05 0.10 0.10 90 1011.1
20260508051526 42 0 0.0 3.0 0.07 0.10 0.10 90 1011.2
20260508051013 42 0 0.0 2.0 0.08 0.10 0.10 89 1011.4
20260508050510 42 0 0.0 4.0 0.08 0.09 0.09 89 1011.6
20260508050029 42 0 0.0 6.0 0.08 0.09 0.09 89 1011.8
20260508045510 42 267 2.0 6.0 0.09 0.09 0.09 88 1011.8
20260508045014 42 0 0.0 6.0 0.09 0.09 0.09 88 1011.8
20260508044527 42 254 1.0 8.0 0.08 0.08 0.08 87 1011.9
20260508044013 42 258 1.0 8.0 0.08 0.08 0.08 86 1011.9
20260508043511 42 273 2.0 8.0 0.07 0.07 0.07 85 1011.9
20260508043028 43 226 2.0 8.0 0.07 0.07 0.07 84 1011.8
20260508042512 43 311 4.0 10.0 0.06 0.06 0.06 83 1011.7
20260508042052 43 296 4.0 10.0 0.05 0.05 0.05 81 1011.8
20260508041528 44 263 3.0 8.0 0.03 0.03 0.03 80 1011.8
20260508041013 45 271 3.0 12.0 0.02 0.02 0.02 78 1011.7
20260508040514 45 282 7.0 11.0 0.01 0.01 0.01 77 1011.6
20260508040034 46 305 6.0 11.0 0.00 0.00 0.00 75 1011.4
20260508035512 46 271 3.0 8.0 0.00 0.00 0.00 74 1011.3
20260508035012 46 300 4.0 10.0 0.00 0.00 0.00 73 1011.0
20260508034535 46 321 4.0 10.0 0.00 0.00 0.00 72 1010.7
20260508034014 46 323 4.0 8.0 0.00 0.00 0.00 72 1010.5
20260508033513 46 286 3.0 8.0 0.00 0.00 0.00 71 1010.3
20260508033029 46 306 2.0 4.0 0.00 0.00 0.00 72 1010.3
20260508032511 46 0 2.0 4.0 0.00 0.00 0.00 72 1010.2
20260508032014 46 350 3.0 4.0 0.00 0.00 0.00 71 1010.1
20260508031530 46 315 2.0 4.0 0.00 0.00 0.00 70 1010.1
20260508031013 46 31 1.0 5.0 0.00 0.00 0.00 70 1009.9
20260508030513 46 35 2.0 5.0 0.00 0.00 0.00 71 1009.9
20260508030029 46 39 0.0 3.0 0.00 0.00 0.00 74 1010.0
20260508025516 46 39 1.0 3.0 0.00 0.00 0.00 73 1010.0
20260508025013 45 39 1.0 2.0 0.00 0.00 0.00 74 1010.1
20260508024528 45 0 1.0 3.0 0.00 0.00 0.00 74 1009.9
20260508024013 45 39 1.0 3.0 0.00 0.00 0.00 74 1009.9
20260508023513 45 39 2.0 3.0 0.00 0.00 0.00 76 1010.0
20260508023035 45 39 1.0 3.0 0.00 0.00 0.00 77 1010.0
20260508022513 45 39 0.0 2.0 0.00 0.00 0.00 78 1009.8
20260508022011 45 39 1.0 2.0 0.00 0.00 0.00 76 1009.9
20260508021527 45 39 0.0 2.0 0.00 0.00 0.00 73 1009.9
20260508021014 45 39 1.0 2.0 0.00 0.00 0.00 73 1009.9
20260508020514 45 0 0.0 0.0 0.00 0.00 0.00 73 1009.8
20260508020028 44 0 0.0 0.0 0.00 0.00 0.00 72 1009.9
20260508015513 44 0 0.0 2.0 0.00 0.00 0.00 72 1009.8
20260508015013 45 0 0.0 2.0 0.00 0.00 0.00 70 1009.8
20260508014528 45 0 0.0 2.0 0.00 0.00 0.00 68 1009.8
20260508014014 45 0 0.0 3.0 0.00 0.00 0.00 68 1009.7
20260508013513 46 39 1.0 3.0 0.00 0.00 0.00 66 1009.7
20260508013028 46 42 0.0 4.0 0.00 0.00 0.00 66 1009.6
20260508012511 47 0 1.0 4.0 0.00 0.00 0.00 66 1009.5
20260508012010 47 11 1.0 5.0 0.00 0.00 0.00 66 1009.7
20260508011529 47 38 1.0 5.0 0.00 0.00 0.00 66 1009.6
20260508011011 47 24 2.0 4.0 0.00 0.00 0.00 66 1009.5
20260508010512 47 21 2.0 4.0 0.00 0.00 0.00 66 1009.6
20260508010030 47 26 2.0 4.0 0.00 0.00 0.00 66 1009.5
20260508005508 47 22 1.0 3.0 0.00 0.00 0.00 66 1009.4
20260508005013 47 22 1.0 3.0 0.00 0.00 0.00 67 1009.4
20260508004532 47 22 2.0 4.0 0.00 0.00 0.00 67 1009.3
20260508004013 48 22 1.0 4.0 0.00 0.00 0.00 67 1009.3
20260508003514 48 25 1.0 3.0 0.00 0.00 0.00 67 1009.2
20260508003032 48 25 1.0 2.0 0.00 0.00 0.00 66 1009.1
20260508002509 49 25 1.0 2.0 0.00 0.00 0.00 66 1009.1
20260508002012 49 25 1.0 2.0 0.00 0.00 0.00 66 1009.0
20260508001544 49 25 1.0 4.0 0.00 0.00 0.00 66 1009.0
20260508001012 49 25 1.0 4.0 0.00 0.00 0.00 66 1009.1
20260508000512 49 25 0.0 2.0 0.00 0.00 0.00 67 1009.0
20260508000027 49 25 1.0 3.0 0.00 0.00 0.00 69 1009.0
20260507235510 50 25 1.0 3.0 0.00 0.00 0.00 67 1009.0
20260507235015 50 25 1.0 3.0 0.00 0.00 0.00 63 1008.9
20260507234529 50 25 1.0 3.0 0.00 0.00 0.00 62 1008.8
20260507234011 51 25 1.0 3.0 0.00 0.00 0.00 59 1008.8
20260507233509 51 25 1.0 3.0 0.00 0.00 0.00 59 1008.7
20260507233032 51 25 1.0 3.0 0.00 0.00 0.00 58 1008.7
20260507232511 51 25 1.0 3.0 0.00 0.00 0.00 59 1008.6
20260507232013 52 2.0 5.0 0.00 0.00 0.00 58 1008.6
20260507231526 52 25 2.0 5.0 0.00 0.00 0.00 58 1008.6
20260507231013 52 5 2.0 5.0 0.00 0.00 0.00 57 1008.7
20260507230511 53 347 1.0 4.0 0.00 0.00 0.00 58 1008.7
20260507230035 53 21 2.0 5.0 0.00 0.00 0.00 56 1008.8
20260507225509 53 9 2.0 5.0 0.00 0.00 0.00 57 1008.7
20260507225012 53 9 2.0 8.0 0.00 0.00 0.00 56 1008.6
20260507224533 53 330 2.0 8.0 0.00 0.00 0.00 54 1008.6
20260507224011 53 310 2.0 8.0 0.00 0.00 0.00 57 1008.5
20260507223511 53 5 2.0 8.0 0.00 0.00 0.00 55 1008.5
20260507223027 53 278 3.0 7.0 0.00 0.00 0.00 52 1008.6
20260507222512 54 288 3.0 8.0 0.00 0.00 0.00 54 1008.5
20260507222008 54 40 2.0 8.0 0.00 0.00 0.00 53 1008.4
20260507221528 54 37 3.0 8.0 0.00 0.00 0.00 52 1008.5
20260507221013 54 30 2.0 7.0 0.00 0.00 0.00 54 1008.5
20260507220513 54 331 1.0 5.0 0.00 0.00 0.00 59 1008.5
20260507220031 54 336 2.0 5.0 0.00 0.00 0.00 57 1008.5
20260507215515 53 317 2.0 5.0 0.00 0.02 0.00 55 1008.6
20260507215017 53 289 2.0 5.0 0.00 0.02 0.00 54 1008.6
20260507214530 53 15 2.0 6.0 0.00 0.02 0.00 56 1008.6
20260507214013 53 20 3.0 6.0 0.00 0.02 0.00 53 1008.7
20260507213513 54 355 3.0 9.0 0.00 0.02 0.00 53 1008.7
20260507213036 54 360 4.0 9.0 0.00 0.02 0.00 52 1008.6
20260507212513 54 322 3.0 7.0 0.00 0.02 0.00 53 1008.7
20260507212011 54 325 4.0 13.0 0.00 0.02 0.00 49 1008.7
20260507211543 55 300 4.0 13.0 0.00 0.02 0.00 48 1008.7
20260507211015 56 290 7.0 14.0 0.00 0.02 0.00 46 1008.8
20260507210513 56 60 5.0 14.0 0.00 0.02 0.00 52 1008.5
20260507210028 55 345 5.0 10.0 0.00 0.02 0.00 52 1008.5
20260507205516 54 38 3.0 9.0 0.00 0.03 0.00 53 1008.6
20260507205011 54 347 3.0 7.0 0.00 0.03 0.00 52 1008.7
20260507204528 54 352 3.0 14.0 0.00 0.03 0.00 52 1008.7
20260507204013 55 355 3.0 14.0 0.00 0.03 0.00 54 1008.7
20260507203515 55 19 3.0 9.0 0.00 0.03 0.00 52 1008.7
20260507203028 55 321 3.0 9.0 0.00 0.03 0.00 55 1008.8
20260507202514 55 253 4.0 8.0 0.00 0.03 0.00 49 1008.7
20260507202014 55 300 3.0 8.0 0.00 0.03 0.00 49 1008.8
20260507201536 54 340 4.0 8.0 0.00 0.03 0.00 50 1008.8
20260507201012 54 5 3.0 12.0 0.00 0.03 0.00 55 1008.9
20260507200513 54 341 4.0 17.0 0.00 0.03 0.00 53 1008.9
20260507200034 55 348 5.0 17.0 0.00 0.03 0.00 52 1009.0
20260507195516 56 60 7.0 12.0 0.00 0.03 0.00 52 1009.0
20260507195013 56 23 6.0 12.0 0.00 0.03 0.00 51 1008.9
20260507194530 56 57 2.0 12.0 0.00 0.03 0.00 52 1008.9
20260507194014 57 26 5.0 12.0 0.00 0.03 0.00 53 1008.9
20260507193512 57 34 5.0 12.0 0.00 0.03 0.00 52 1008.9
20260507193028 57 360 3.0 12.0 0.00 0.03 0.00 51 1009.0
20260507192511 55 275 4.0 10.0 0.00 0.03 0.00 52 1009.0
20260507192012 56 351 4.0 13.0 0.00 0.03 0.00 50 1009.1
20260507191530 55 273 3.0 13.0 0.00 0.03 0.00 49 1009.1
20260507191010 55 44 5.0 11.0 0.00 0.03 0.00 51 1009.3
20260507190511 54 90 5.0 10.0 0.00 0.03 0.00 56 1009.3
20260507190028 54 360 4.0 16.0 0.00 0.03 0.00 56 1009.5
20260507185512 54 350 7.0 16.0 0.00 0.03 0.00 54 1009.4
20260507185013 55 306 6.0 13.0 0.00 0.03 0.00 52 1009.4
20260507184527 54 275 6.0 12.0 0.00 0.03 0.00 50 1009.4
20260507184011 54 277 4.0 9.0 0.00 0.03 0.00 52 1009.5
20260507183512 54 0 2.0 9.0 0.00 0.03 0.00 54 1009.5
20260507183032 54 40 3.0 11.0 0.00 0.03 0.00 58 1009.7
20260507182511 53 37 2.0 11.0 0.00 0.03 0.00 53 1009.7
20260507182010 53 14 5.0 11.0 0.00 0.03 0.00 55 1009.7
20260507181528 53 316 5.0 11.0 0.00 0.03 0.00 54 1009.8
20260507181010 53 24 3.0 11.0 0.00 0.03 0.00 53 1009.7
20260507180512 54 298 6.0 12.0 0.00 0.03 0.00 53 1009.8
20260507180043 54 317 6.0 12.0 0.00 0.03 0.00 52 1009.8
20260507175510 54 268 4.0 10.0 0.00 0.03 0.00 57 1009.9
20260507175011 53 340 5.0 13.0 0.00 0.03 0.00 52 1009.9
20260507174532 54 307 6.0 14.0 0.00 0.03 0.00 51 1010.0
20260507174008 54 296 8.0 14.0 0.00 0.03 0.00 53 1010.1
20260507173514 52 279 5.0 12.0 0.00 0.03 0.00 51 1010.0
20260507173030 52 282 7.0 12.0 0.00 0.03 0.00 52 1010.1
20260507172510 53 312 5.0 11.0 0.00 0.03 0.00 51 1010.1
20260507172012 53 313 5.0 11.0 0.00 0.03 0.00 53 1010.1
20260507171526 52 335 5.0 12.0 0.00 0.03 0.00 56 1010.2
20260507171014 52 5 5.0 12.0 0.00 0.03 0.00 56 1010.3
20260507170042 52 27 3.0 10.0 0.00 0.03 0.00 52 1010.3
20260507165511 53 331 4.0 12.0 0.00 0.05 0.00 58 1010.4
20260507165011 52 300 4.0 12.0 0.00 0.05 0.00 54 1010.5
20260507164530 52 360 4.0 12.0 0.00 0.05 0.00 52 1010.4
20260507164013 53 313 5.0 12.0 0.00 0.05 0.00 56 1010.5
20260507163512 52 286 4.0 11.0 0.00 0.05 0.00 55 1010.6
20260507163027 52 221 4.0 11.0 0.00 0.05 0.00 53 1010.6
20260507162511 52 221 5.0 15.0 0.00 0.05 0.00 52 1010.7
20260507162012 52 298 5.0 15.0 0.00 0.05 0.00 59 1010.8
20260507161530 52 326 9.0 15.0 0.00 0.05 0.00 53 1010.9
20260507161017 52 297 5.0 11.0 0.00 0.05 0.00 51 1011.0
20260507160513 52 0 2.0 16.0 0.00 0.05 0.00 57 1011.0
20260507160029 52 244 6.0 16.0 0.00 0.05 0.00 56 1011.0
20260507155511 51 334 4.0 14.0 0.00 0.14 0.00 57 1011.2
20260507155010 50 280 6.0 14.0 0.00 0.14 0.00 54 1011.1
20260507154528 51 318 3.0 11.0 0.00 0.14 0.00 59 1011.1
20260507154014 52 249 3.0 11.0 0.00 0.14 0.00 55 1011.1
20260507153513 51 319 6.0 11.0 0.00 0.14 0.00 59 1011.4
20260507153027 51 300 5.0 14.0 0.00 0.14 0.00 57 1011.4
20260507152512 51 321 7.0 13.0 0.00 0.14 0.00 55 1011.3
20260507152012 51 309 6.0 12.0 0.00 0.14 0.00 58 1011.4